Flag for U.S.A. Weather past 2 weeks in Santa Rosa, California, U.S.A.

Now
56 °F

Light rain. Fog.


Feels Like: 55 °F
Forecast: 53 / 63 °F
Wind: 5 mph from Southeast

Location: Santa Rosa Sonoma County Airport

Current Time: Dec 20, 2014 at 4:43:24 PM

Latest Report: Dec 20, 2014 at 3:53 PM


Visibility: 2 mi

Pressure: 30.16 "Hg

Humidity: 93%

Dew point: 54 °F

Location of Santa RosaLocation

Historic Weather in Santa Rosa — Graph

°F

Santa Rosa temperature yesterday

Maximum temperature yesterday: 58 °F (at 1:53 PM)
Minimum temperature yesterday: 52 °F (at 12:00 AM)
Average temperature yesterday: 54 °F

Past Weeks' High & Low Weather Summary

 TemperatureHumidityPressure
High63 °F (Dec 6, 2:53 PM)100% (Dec 6, 2:53 AM)30.22 "Hg (Dec 6, 2:53 AM)
Low42 °F (Dec 13, 7:53 AM)64% (Dec 14, 12:53 PM)29.42 "Hg (Dec 11, 5:53 AM)
Average53 °F94%30.00 "Hg
* Reported Dec 5 2:53 PM — Dec 20 2:53 PM, Santa Rosa, Weather by CustomWeather, © 2014

Note: Actual official high and low records may vary slightly from our data, if they occured in-between our weather recording intervals... More about our weather records

Advertising

Santa Rosa weather history for previous 24 hours

 ConditionsComfort  
Time TempWeatherWind HumidityBarometerVisibility
2:53 PM
Dec 20
57 °FFog.5 mph90%30.14 "Hg4 mi
1:53 PM56 °FFog.5 mph93%30.14 "Hg4 mi
12:53 PM55 °FLight rain. Fog.No wind96%30.16 "Hg1 mi
11:53 AM55 °FLight rain. Fog.No wind96%30.16 "Hg1 mi
10:53 AM55 °FFog.3 mph93%30.18 "Hg2 mi
9:53 AM54 °FFog.6 mph93%30.16 "Hg2 mi
8:53 AM53 °FFog.3 mph96%30.16 "Hg1 mi
7:53 AM53 °FFog.No wind96%30.15 "Hg1 mi
6:53 AM52 °FFog.No wind100%30.12 "Hg1 mi
5:53 AM52 °FFog.No wind100%30.10 "Hg2 mi
4:53 AM53 °FFog.No wind96%30.11 "Hg2 mi
3:53 AM53 °FFog.No wind96%30.11 "Hg2 mi
2:53 AM53 °FFog.No wind96%30.11 "Hg4 mi
1:53 AM53 °FFog.No wind96%30.11 "Hg3 mi
12:53 AM53 °FFog.No wind96%30.11 "Hg3 mi
11:53 PM
Dec 19
53 °FFog.No wind96%30.13 "Hg4 mi
11:00 PM54 °FFog.No wind94%30.16 "Hg5 mi
9:53 PM53 °FFog.No wind96%30.12 "Hg5 mi
8:53 PM53 °FFog.3 mph96%30.11 "Hg6 mi
8:04 PM54 °FMostly cloudy.3 mph94%30.11 "Hg7 mi
7:53 PM54 °FLow clouds.6 mph93%30.08 "Hg7 mi
6:56 PM54 °FFog.5 mph100%30.11 "Hg5 mi
6:04 PM54 °FPassing clouds.3 mph100%30.11 "Hg9 mi
5:53 PM55 °FPassing clouds.5 mph93%30.09 "Hg9 mi
4:53 PM56 °FMostly cloudy.No wind93%30.10 "Hg10 mi
Weather by CustomWeather, © 2014

See weather overviewHow to use our weather pages